Gary, IN

2:50 AM CDT on August 31, 2016 (GMT -0500)
Gary / Chicago

Weather History for KGYY - April, 2014

Change the Weather History Date:

Monday, April 21, 2014

  Actual Average Record
Temperature  
Mean Temperature 69 °F -  
Max Temperature 78 °F 63 °F 78 °F (1973)
Min Temperature 60 °F 42 °F 31 °F (1975)
Cooling Degree Days 4    
Growing Degree Days 19 (Base 50)    
Moisture  
Dew Point 47 °F    
Average Humidity 58    
Maximum Humidity 100    
Minimum Humidity 32    
Precipitation  
Precipitation 0.01 in - - ()
Sea Level Pressure  
Sea Level Pressure 29.93 in    
Wind  
Wind Speed 6 mph (SSW)    
Max Wind Speed 17 mph    
Max Gust Speed 34 mph    
Visibility 9 miles    
Events Rain    
Averages and records for this station are not official NWS values.
T = Trace of Precipitation, MM = Missing Value Source: NWS Daily Summary

Daily Weather History Graph

Daily Weather History Graph

Search for Another Location

Airport or City:

Trip Planner

Search our weather history database for the weather conditions in past years. The results will help you decide how hot, cold, wet, or windy it might be!

Date:

Astronomy

Apr. 21, 2014 Rise Set
Actual Time 6:00 AM CDT 7:36 PM CDT
Civil Twilight 5:31 AM CDT 8:06 PM CDT
Nautical Twilight 4:55 AM CDT 8:41 PM CDT
Astronomical Twilight 4:18 AM CDT 9:19 PM CDT
Moon 1:07 AM CDT (4/21) 11:25 AM CDT (4/21)
Length of Visible Light 14h 34m
Length of Day
13h 36m
Waning Gibbous, 57% of the Moon is Illuminated
Apr 21
Waning Gibbous
Apr 22
Last Quarter
Apr 29
New
May 6
First Quarter
May 14
Full

Hourly Weather History & Observations

Time (CDT) Temp. Dew Point Humidity Pressure Visibility Wind Dir Wind Speed Gust Speed Precip Events Conditions
12:15 AM 64.6 °F 36.3 °F 35% 30.04 in 10.0 mi South 4.6 mph - N/A   Clear
12:35 AM 64.4 °F 37.4 °F 37% 30.04 in 10.0 mi South 3.5 mph - N/A   Clear
12:55 AM 63.9 °F 37.9 °F 38% 30.04 in 10.0 mi South 4.6 mph - N/A   Clear
1:15 AM 64.0 °F 38.3 °F 39% 30.04 in 10.0 mi South 4.6 mph - N/A   Clear
1:35 AM 64.4 °F 38.5 °F 38% 30.04 in 10.0 mi South 3.5 mph - N/A   Clear
1:55 AM 63.7 °F 39.2 °F 41% 30.03 in 10.0 mi South 3.5 mph - N/A   Clear
2:15 AM 63.3 °F 39.2 °F 41% 30.03 in 10.0 mi South 5.8 mph - N/A   Clear
2:35 AM 62.6 °F 39.6 °F 43% 30.02 in 10.0 mi Calm Calm - N/A   Clear
2:55 AM 61.7 °F 40.1 °F 45% 30.02 in 10.0 mi South 4.6 mph - N/A   Clear
3:15 AM 62.1 °F 39.7 °F 44% 30.02 in 10.0 mi South 4.6 mph - N/A   Clear
3:35 AM 62.6 °F 39.6 °F 43% 30.01 in 10.0 mi SSW 5.8 mph - N/A   Clear
3:55 AM 62.6 °F 39.6 °F 43% 30.01 in 10.0 mi South 4.6 mph - N/A   Clear
4:15 AM 62.2 °F 39.7 °F 44% 30.01 in 10.0 mi SSW 4.6 mph - N/A   Clear
4:45 AM 60.8 °F 39.2 °F 45% 30.00 in 10.0 mi SSW 10.4 mph - N/A   Partly Cloudy
5:45 AM 60.8 °F 39.2 °F 45% 29.99 in 10.0 mi SSE 8.1 mph - N/A   Mostly Cloudy
6:45 AM 60.8 °F 39.2 °F 45% 29.98 in 10.0 mi South 5.8 mph - N/A   Scattered Clouds
7:45 AM 64.4 °F 39.2 °F 40% 29.97 in 10.0 mi South 11.5 mph - N/A   Scattered Clouds
8:45 AM 66.2 °F 41.0 °F 40% 29.95 in 10.0 mi South 11.5 mph - N/A   Mostly Cloudy
9:45 AM 68.0 °F 41.0 °F 37% 29.95 in 10.0 mi South 9.2 mph - N/A   Overcast
10:45 AM 69.8 °F 42.8 °F 38% 29.92 in 10.0 mi South 11.5 mph - N/A   Overcast
11:45 AM 71.6 °F 44.6 °F 38% 29.92 in 10.0 mi South 11.5 mph - N/A   Overcast
12:45 PM 75.2 °F 44.6 °F 34% 29.89 in 10.0 mi South 11.5 mph - N/A   Overcast
1:45 PM 77.0 °F 48.2 °F 36% 29.87 in 10.0 mi SW 8.1 mph - N/A   Overcast
2:45 PM 78.8 °F 46.4 °F 32% 29.83 in 10.0 mi WSW 11.5 mph 23.0 mph N/A   Mostly Cloudy
3:45 PM 66.2 °F 53.6 °F 64% 29.83 in 10.0 mi SW 17.3 mph 34.5 mph N/A Rain Light Rain
4:45 PM 68.0 °F 51.8 °F 56% 29.84 in 10.0 mi WSW 9.2 mph - N/A   Overcast
5:45 PM 64.4 °F 59.0 °F 83% 29.85 in 4.0 mi WSW 15.0 mph 29.9 mph N/A   Overcast
6:45 PM 62.6 °F 62.6 °F 100% 29.85 in 7.0 mi WSW 10.4 mph - N/A Rain Light Rain
7:45 PM 62.6 °F 59.0 °F 88% 29.85 in 10.0 mi West 12.7 mph - N/A Rain Light Rain
8:45 PM 60.8 °F 57.2 °F 88% 29.84 in 7.0 mi SW 6.9 mph 18.4 mph N/A Rain Rain
9:15 PM 60.8 °F 58.5 °F 92% 29.84 in 7.0 mi WSW 4.6 mph - N/A   Light Drizzle
9:35 PM 61.2 °F 59.0 °F 93% 29.83 in 7.0 mi SW 3.5 mph - N/A   Overcast
9:55 PM 61.3 °F 59.0 °F 92% 29.83 in 5.0 mi SW 3.5 mph - 0.01 in   Overcast
10:15 PM 61.3 °F 59.2 °F 93% 29.82 in 5.0 mi SW 3.5 mph - N/A   Overcast
10:35 PM 61.3 °F 59.2 °F 93% 29.82 in 5.0 mi WSW 3.5 mph - N/A   Overcast
10:55 PM 61.3 °F 59.0 °F 92% 29.82 in 5.0 mi SW 6.9 mph - N/A   Overcast
11:15 PM 61.2 °F 59.0 °F 93% 29.82 in 5.0 mi WSW 5.8 mph - N/A   Mostly Cloudy
11:35 PM 60.8 °F 58.5 °F 92% 29.81 in 5.0 mi WSW 5.8 mph - N/A   Scattered Clouds
11:55 PM 61.0 °F 58.8 °F 93% 29.81 in 4.0 mi West 8.1 mph - N/A   Mostly Cloudy